◎2005 GB34の軌道と予報位置です



 昨夜に,何人かの方に観測を依頼した天体ですが,マックノートからの

観測が報告されました.この小惑星は,北半球では,もう観測できません.

今夜,22時 JSTに高度が+16゚までになりますが,ちょっと,無理でしょう.

小惑星は,4月7日14時UTに,地球まで0.00687 AU(約103万Km)まで,接

近しました.



No identification:

 

2005 GB34                                                                   

Epoch 2005 Jan. 30.0 TT = JDT 2453400.5                 MPC      

M 330.15045              (2000.0)            P               Q

n   0.58712812     Peri.  161.07035     -0.99365462     -0.03603967

a   1.4124751      Node    17.89767     -0.04577942     -0.73566570

e   0.2950261      Incl.   20.28501     +0.10273631     -0.67638533

P   1.68           H   25.8           G   0.15           U   6

Residuals in seconds of arc 

050406 118 (4.8- 16.2-)   050406 118 (1.3-  9.0-)   050407 932  0.0   1.6+  

050406 118 (4.2-  0.4-)   050407 118  1.9-  0.6-    050407 932  0.9+  2.1+  

050406 118 (6.9- 12.8-)   050407 118  0.6+  1.6+    050407 854  0.7-  1.7-  

050406 118 (3.9+  1.2+)   050407 118  0.2-  0.4-    050407 854 (1.1-  3.1-) 

050406 118 (1.9- 10.4-)   050407 118  0.0   0.4+    050407 854  0.3-  0.8-  

050406 118  1.9+  1.3+    050407 118  0.4-  0.4-    050407 854  0.9-  1.2-  

050406 118 (5.8+  3.4-)   050407 118 (0.5+  3.2+)   050407 854  0.2+  1.7-  

050406 118 (6.7-  2.2+)   050407 J95  0.1+  0.7+    050407 854  0.3-  1.0-  

050406 118 (5.4- 13.0-)   050407 J95  0.0   0.1+    050407 854  0.5+  1.3-  

050406 118  1.1+  2.7-    050407 J95  0.0   0.2+    050407 854  0.1-  0.9-  

050406 118 (0.8-  5.9-)   050407 J95  0.4-  0.5+    050407 854  0.4+  2.0-  

050406 118  1.7-  0.7+    050407 J95  0.3-  0.5+    050407 854  0.8+  0.2-  

050406 118 (1.7+ 11.3-)   050407 J95  0.0   0.4+    050407 413  0.0   1.0+  

050406 118  2.6-  1.4-    050407 J95  0.0   0.8+    050407 413  0.3+  1.3+  

050406 118 (7.2- 12.6-)   050407 J95  0.3-  1.0+    050407 413  0.2-  1.5+  

050406 118  2.6+  2.7-    050407 J95  0.4+  1.0+    050407 413  0.1+  0.3-  

050406 118 (2.1-  7.9-)   050407 J95  0.5+  1.4+    050407 413  0.1+  0.4-  

050406 118  0.4+  1.2+    050407 932  0.6-  0.8+    050407 413  0.0   0.3-  

 

K05G34B 0.15K053L839926216107034930178976679020285008309957580620295026101 K051U

2005 GB34  25.8  K051U 330.2 161.1  17.9  20.3 0.295   1.412   2     1    39 6 M

PCN      MPC xxxxx K0546 K0547  1.06 h M-v 003E        49050

 

2005 GB34 

OBSERVATORY: 413 149.0661 0.85560 -0.51626 Siding Spring Observatory            

        

 

Date        Time (UT)  R. A. (2000) Decl.         Delta     R       Mag.   Daily

 Motion Obj. h     A   Sun h    A  

Year Mo. D.  h  m  s     h  m  s       。  ,  "         AU      AU    V        , 

    。        。      。      。      。

2005  4  8  00 00 00   12 27 02.9   -17 44 02     0.00750   1.009   16.0  2853.0

/192.3    -37.0   26    +41.3  224 

2005  4  8  01 00 00   12 25 15.3   -19 40 10     0.00762   1.009   16.1  2772.5

/192.4    -38.9    7    +48.6  205 

2005  4  8  02 00 00   12 23 29.0   -21 32 59     0.00774   1.009   16.2  2694.7

/192.6    -36.5  349    +51.7  182 

2005  4  8  03 00 00   12 21 42.6   -23 22 33     0.00787   1.009   16.3  2617.4

/192.9    -30.4  333    +49.5  159 

2005  4  8  04 00 00   12 19 54.9   -25 08 49     0.00801   1.009   16.4  2539.8

/193.4    -21.7  321    +42.9  140 

2005  4  8  05 00 00   12 18 04.8   -26 51 43     0.00815   1.009   16.5  2463.2

/194.1    -11.1  311    +33.4  125 

2005  4  8  06 00 00   12 16 11.4   -28 31 14     0.00829   1.009   16.5  2384.8

/194.8    + 0.5  304    +22.2  114 

2005  4  8  07 00 00   12 14 14.1   -30 07 16     0.00845   1.009   16.6  2304.1

/195.6    +12.8  298    +10.0  105 

2005  4  8  08 00 00   12 12 12.8   -31 39 41     0.00861   1.009   16.7  2222.3

/196.4    +25.5  293    - 2.6   97 

2005  4  8  09 00 00   12 10 07.5   -33 08 26     0.00877   1.009   16.8  2137.6

/197.3    +38.4  290    -15.4   89 

2005  4  8  10 00 00   12 07 58.9   -34 33 25     0.00895   1.009   16.9  2050.3

/198.1    +51.3  288    -28.2   81 

2005  4  8  11 00 00   12 05 47.8   -35 54 33     0.00913   1.009   17.0  1962.3

/198.8    +64.1  289    -40.7   71 

2005  4  8  12 00 00   12 03 35.3   -37 11 52     0.00932   1.009   17.1  1872.8

/199.5    +76.1  300    -52.3   58 

2005  4  8  13 00 00   12 01 22.6   -38 25 22     0.00951   1.009   17.1  1783.2

/199.9    +82.6    3    -61.7   36 

2005  4  8  14 00 00   11 59 11.2   -39 35 09     0.00972   1.009   17.2  1695.8

/200.2    +74.4   53    -66.2    3 

2005  4  8  15 00 00   11 57 02.3   -40 41 23     0.00993   1.009   17.3  1610.8

/200.4    +62.8   60    -63.1  329 

2005  4  8  16 00 00   11 54 57.1   -41 44 14     0.01014   1.010   17.4  1529.5

/200.3    +51.0   61    -54.3  306 

2005  4  8  17 00 00   11 52 56.5   -42 43 56     0.01036   1.010   17.4  1454.1

/200.1    +39.6   58    -43.0  291 

2005  4  8  18 00 00   11 51 01.4   -43 40 47     0.01058   1.010   17.5  1384.6

/199.7    +28.8   54    -30.6  280 

2005  4  8  19 00 00   11 49 11.9   -44 35 02     0.01081   1.010   17.6  1321.6

/199.3    +18.8   49    -17.8  272 

2005  4  8  20 00 00   11 47 28.2   -45 26 58     0.01104   1.010   17.7  1266.2

/198.8    + 9.8   42    - 5.0  264 

2005  4  8  21 00 00   11 45 49.8   -46 16 52     0.01127   1.010   17.7  1217.2

/198.3    + 2.1   35    + 7.6  256 

2005  4  8  22 00 00   11 44 16.2   -47 04 59     0.01150   1.010   17.8  1174.3

/197.9    - 4.0   26    +19.8  248 

2005  4  8  23 00 00   11 42 46.4   -47 51 30     0.01174   1.010   17.9  1137.3

/197.7    - 8.0   16    +31.2  237 

2005  4  9  00 00 00   11 41 19.4   -48 36 37     0.01197   1.010   17.9  1104.5

/197.6    - 9.8    6    +41.1  223 

2005  4  9  01 00 00   11 39 53.9   -49 20 28     0.01221   1.010   18.0  1074.8

/197.8    - 9.3  356    +48.3  205 

2005  4  9  02 00 00   11 38 28.7   -50 03 05     0.01244   1.010   18.1  1047.8

/198.2    - 6.5  346    +51.3  182 

2005  4  9  03 00 00   11 37 02.7   -50 44 32     0.01268   1.010   18.1  1021.7

/198.8    - 1.8  338    +49.2  159 

2005  4  9  04 00 00   11 35 34.9   -51 24 49     0.01292   1.010   18.2   995.6

/199.6    + 4.6  330    +42.6  140 

2005  4  9  05 00 00   11 34 04.3   -52 03 52     0.01315   1.010   18.2   969.5

/200.6    +12.2  324    +33.1  125 

2005  4  9  06 00 00   11 32 30.6   -52 41 38     0.01339   1.010   18.3   941.9

/201.7    +20.6  320    +21.9  114 

2005  4  9  07 00 00   11 30 53.3   -53 18 04     0.01363   1.010   18.3   912.7

/202.9    +29.6  317    + 9.8  105 

2005  4  9  08 00 00   11 29 12.7   -53 53 02     0.01388   1.011   18.4   882.2

/204.2    +38.7  317    - 2.8   97 

2005  4  9  09 00 00   11 27 29.1   -54 26 32     0.01412   1.011   18.5   849.7

/205.4    +47.7  319    -15.6   90 

2005  4  9  10 00 00   11 25 43.1   -54 58 27     0.01437   1.011   18.5   815.5

/206.6    +55.8  325    -28.4   81 

2005  4  9  11 00 00   11 23 55.7   -55 28 47     0.01462   1.011   18.6   780.5

/207.6    +62.1  337    -40.9   72 

2005  4  9  12 00 00   11 22 08.0   -55 57 34     0.01487   1.011   18.6   744.6

/208.5    +65.0  355    -52.6   58 

2005  4  9  13 00 00   11 20 21.1   -56 24 48     0.01513   1.011   18.7   708.6

/209.1    +63.4   15    -62.1   37 

2005  4  9  14 00 00   11 18 36.3   -56 50 34     0.01539   1.011   18.7   673.7

/209.4    +58.1   28    -66.6    3 

2005  4  9  15 00 00   11 16 54.4   -57 14 59     0.01565   1.011   18.8   640.2

/209.4    +50.8   35    -63.4  328 

2005  4  9  16 00 00   11 15 16.6   -57 38 11     0.01591   1.011   18.8   608.8

/209.1    +42.7   38    -54.5  305 

2005  4  9  17 00 00   11 13 43.3   -58 00 18     0.01618   1.011   18.9   580.8

/208.6    +34.5   38    -43.1  290 

2005  4  9  18 00 00   11 12 15.1   -58 21 32     0.01644   1.011   18.9   556.3

/207.8    +26.6   36    -30.7  280 

2005  4  9  19 00 00   11 10 51.9   -58 42 01     0.01671   1.011   18.9   535.5

/206.8    +19.3   32    -18.0  272 

2005  4  9  20 00 00   11 09 33.6   -59 01 54     0.01698   1.011   19.0   518.9

/205.8    +13.0   27    - 5.2  264 

2005  4  9  21 00 00   11 08 19.7   -59 21 20     0.01724   1.011   19.0   505.9

/204.9    + 7.8   21    + 7.5  256 

2005  4  9  22 00 00   11 07 09.4   -59 40 26     0.01751   1.011   19.1   496.1

/204.1    + 4.0   14    +19.7  247 

2005  4  9  23 00 00   11 06 01.8   -59 59 17     0.01777   1.012   19.1   489.2

/203.6    + 1.9    7    +31.0  237 

NAKANO

         **** Don't distribute anyone except personal use only ****

                (C) Copyright 2005 OAA/ComputingSection

write mail from CFAD0::NAKANO on 2005-04-08 21:45:24(JST).



戻ります。